This is the latest recevied weather packets stored in our database for station/object KE7KUS-14. If no packets are shown the sender has not sent any weather packets the latest 10 day(s).
| Time | Temp. | Humidity | Pressure | Rain* | Wind** | Luminosity | Snow |
|---|---|---|---|---|---|---|---|
| 1777870952 | 8.89° C | 70% | 1026.6 hPa | 0 mm | - | 0 W/m² | - |
| 1777868546 | 9.44° C | 67% | 1026.6 hPa | 0 mm | - | 0 W/m² | - |
| 1777862504 | 10° C | 64% | 1026.3 hPa | 0 mm | - | 0 W/m² | - |
| 1777860770 | 12.22° C | 55% | 1026.2 hPa | 0 mm | - | 0 W/m² | - |
| 1777857746 | 15.56° C | 47% | 1026 hPa | 0 mm | - | 26 W/m² | - |
| 1777850538 | 16.11° C | 45% | 1026.4 hPa | 0 mm | - | 154 W/m² | - |
| 1777846316 | 15.56° C | 48% | 1027.5 hPa | 0 mm | - | 313 W/m² | - |
| 1777845146 | 15.56° C | 46% | 1027.7 hPa | 0 mm | - | 405 W/m² | - |
| 1777843326 | 15° C | 50% | 1028.1 hPa | 0 mm | - | 277 W/m² | - |
| 1777839167 | 14.44° C | 53% | 1029.4 hPa | 0 mm | - | 299 W/m² | - |
| 1777837349 | 15° C | 51% | 1029.6 hPa | 0 mm | - | 416 W/m² | - |
| 1777834361 | 15° C | 53% | 1029.7 hPa | 0 mm | - | 460 W/m² | - |
| 1777831311 | 15° C | 51% | 1030.3 hPa | 0 mm | - | 588 W/m² | - |
| 1777828323 | 13.89° C | 58% | 1030.7 hPa | 0 mm | - | 592 W/m² | - |
| 1777824687 | 12.78° C | 54% | 1031 hPa | 0 mm | - | 319 W/m² | - |
| 1777822869 | 12.22° C | 51% | 1030.9 hPa | 0 mm | - | 296 W/m² | - |
| 1777821700 | 12.22° C | 52% | 1030.8 hPa | 0 mm | - | 336 W/m² | - |
| 1777818145 | 9.44° C | 70% | 1030.9 hPa | 0 mm | - | 182 W/m² | - |
| 1777813906 | 5° C | 80% | 1030.4 hPa | 0 mm | - | 53 W/m² | - |
| 1777812087 | 3.89° C | 82% | 1029.9 hPa | 0 mm | - | 20 W/m² | - |
| 1777810918 | 2.78° C | 85% | 1029.9 hPa | 0 mm | - | 4 W/m² | - |
| 1777806112 | 3.33° C | 83% | 1030.2 hPa | 0 mm | - | 0 W/m² | - |
| 1777801912 | 3.89° C | 82% | 1030.2 hPa | 0 mm | - | 0 W/m² | - |
| 1777795334 | 3.33° C | 82% | 1031.5 hPa | 0 mm | - | 0 W/m² | - |
| 1777791698 | 4.44° C | 81% | 1031.5 hPa | 0 mm | - | 0 W/m² | - |
* Rain latest hour (hover to see other rain measurements)
** Current wind speed in m/s (hover to see current wind gust speed)